sat.trackr.live / text

‹ back to catalog

STARLINK-31197

NORAD 58859 · 2024-019G

PAYLOAD ACTIVE UNKNOWN

§ Identity

Operator
Country
US
Launch date
2024-01-29
Launch site
AFETR
Launch vehicle
Mass (kg)
RCS (m²)

Purposes: comms

External: N2YO · Heavens-Above · Gunter

§ Orbital elements

Epoch: 2026-09-20T04:17:39.125184Z

Period
94.27 min
Inclination
43.0039°
Eccentricity
0.0001278
Mean motion
15.27577855 rev/d
Perigee alt
482.2 km
Apogee alt
483.9 km
Semi-major
6,861.2 km
B*
5.2659e-5
RAAN
230.8436°
Arg perigee
263.8688°
Mean anomaly
96.2019°
Rev number
14,882

§ Raw data

STARLINK-311971 58859U 24019G   26263.17892506  .00001187  00000+0  52659-4 0  99952 58859  43.0039 230.8436 0001278 263.8688  96.2019 15.27577855148823

JSON: /api/v1/satellites/58859 · /tle

For live sub-satellite position, see the globe view (requires WebGL).

§ Visibility from observer

Set your observer location to see the next 7 days of passes ≥ 10°. The values pass through the URL so the page stays shareable.

No JS? Fill the form by hand. The geolocation button needs JavaScript.